{"data":{"norad_id":57182,"intl_designator":"2023-091S","name":"MONITOR-4 (RS57S)","alt_names":[],"object_type":"PAYLOAD","status":"ACTIVE","operator":null,"country":"CIS","launch_date":"2023-06-27","launch_site_code":"VOSTO","launch_vehicle":null,"mission":null,"orbit_class":"UNKNOWN","rcs_meters":null,"size_class":null,"mass_kg":null,"dimensions":null,"purposes":["comms"],"wikipedia_slug":null,"has_3d_model":false,"image_url":null,"decayed_at":null,"tle_current":{"epoch":"2026-05-25T04:28:44.488128Z","epoch_age_seconds":65902,"freshness":"FRESH","line1":"1 57182U 23091S   26145.18662602  .00010839  00000+0  40588-3 0  9995","line2":"2 57182  97.5090 208.4413 0012186 173.7922 186.3470 15.27399469160782","mean_motion":15.27399469,"eccentricity":0.0012186,"inclination_deg":97.509,"raan_deg":208.4413,"arg_perigee_deg":173.7922,"mean_anomaly_deg":186.347,"bstar":0.00040588,"rev_number":16078,"period_min":94.277890573235,"perigee_km":475.22802385709,"apogee_km":491.95142422893,"semimajor_km":6861.726724043,"source":"CELESTRAK","updated_at":"2026-05-25T13:38:23.291660Z"}}}